Torna al catalogo

STARLINK-32423

AttivoComunicazioniVLEO
NORAD 61218·PAYLOAD·🇺🇸 United States

Lanciato Sep 20, 2024 da Vandenberg Space Force Base

Loading…

Prossimi Passaggi (prossime 24 ore)

TLE

AggiornatoSource: CelesTrak SupGP

Epoca: Sep 14, 2026, 14:20 UTC

1 61218C 24171U   26257.59770833  .00064909  00000+0  20878-2 0  2578
2 61218  53.1578 164.0572 0001350 104.2830 278.4173 15.31662267    13

Traccia STARLINK-32423 in tempo reale con AllMySat

Download on the App Store